When you browse on this site, cookies collect data to enhance your experience and personalize the content and advertising you see.
Visit our Privacy Policy to learn more. By continuing to use the site, you agree to this use of cookies and data.
  • In Hungary
  • List of Countries
  • For 7 days
  • Water Temperature
  • Satellite Maps
  • Weather Map
  • News
  • Weather Widgets
  • user-avatar
    Login

    Hourly Weather Reichenbach im Vogtland

    Today, 19 February, Tuesday

    Time Temperature Precipitation Wind Pressure Humidity
    00:00 +2°C° 0 mm 3 mps 727 mmHg 72%
    01:00 +2°C° 0 mm 3 mps 727 mmHg 72%
    02:00 +2°C° 0 mm 3 mps 727 mmHg 73%
    03:00 +1°C° 0 mm 4 mps 727 mmHg 74%
    04:00 0°C° 0 mm 4 mps 727 mmHg 75%
    05:00 0°C° 0 mm 4 mps 727 mmHg 76%
    06:00 0°C° 0 mm 4 mps 727 mmHg 78%
    07:00 +1°C° 0 mm 5 mps 727 mmHg 80%
    08:00 +2°C° 0 mm 5 mps 727 mmHg 79%
    09:00 +3°C° 0 mm 5 mps 727 mmHg 79%
    10:00 +5°C° 0 mm 5 mps 728 mmHg 78%
    11:00 +6°C° 0 mm 5 mps 728 mmHg 77%
    12:00 +7°C° 0 mm 5 mps 728 mmHg 75%
    13:00 +8°C° 0 mm 5 mps 728 mmHg 74%
    14:00 +7°C° 0.1 mm 5 mps 727 mmHg 77%
    15:00 +7°C° 0.1 mm 5 mps 727 mmHg 80%
    16:00 +6°C° 0.1 mm 4 mps 727 mmHg 82%
    17:00 +5°C° 0 mm 4 mps 727 mmHg 84%
    18:00 +4°C° 0 mm 4 mps 728 mmHg 87%
    19:00 +4°C° 0 mm 3 mps 728 mmHg 89%
    20:00 +3°C° 0 mm 3 mps 728 mmHg 89%
    21:00 +2°C° 0 mm 3 mps 728 mmHg 88%
    22:00 +2°C° 0 mm 3 mps 728 mmHg 88%
    23:00 +2°C° 0 mm 3 mps 729 mmHg 89%

    Tomorrow, 20 February, Wednesday

    Time Temperature Precipitation Wind Pressure Humidity
    00:00 +1°C° 0 mm 3 mps 729 mmHg 90%
    01:00 +1°C° 0 mm 3 mps 729 mmHg 90%
    02:00 +1°C° 0 mm 3 mps 729 mmHg 91%
    03:00 +1°C° 0 mm 3 mps 729 mmHg 91%
    04:00 0°C° 0 mm 3 mps 729 mmHg 92%
    05:00 0°C° 0 mm 3 mps 730 mmHg 92%
    06:00 0°C° 0 mm 3 mps 730 mmHg 92%
    07:00 0°C° 0 mm 3 mps 730 mmHg 92%
    08:00 +2°C° 0 mm 3 mps 730 mmHg 88%
    09:00 +3°C° 0 mm 4 mps 731 mmHg 84%
    10:00 +4°C° 0 mm 4 mps 731 mmHg 80%
    11:00 +5°C° 0 mm 4 mps 731 mmHg 75%
    12:00 +6°C° 0 mm 4 mps 731 mmHg 69%
    13:00 +7°C° 0 mm 4 mps 731 mmHg 64%
    14:00 +7°C° 0 mm 4 mps 731 mmHg 64%
    15:00 +7°C° 0 mm 4 mps 731 mmHg 64%
    16:00 +8°C° 0 mm 3 mps 731 mmHg 63%
    17:00 +5°C° 0 mm 3 mps 731 mmHg 69%
    18:00 +4°C° 0 mm 3 mps 732 mmHg 74%
    19:00 +3°C° 0 mm 3 mps 732 mmHg 80%
    20:00 +4°C° 0 mm 3 mps 732 mmHg 80%
    21:00 +4°C° 0 mm 3 mps 732 mmHg 80%
    22:00 +4°C° 0 mm 3 mps 732 mmHg 80%
    23:00 +4°C° 0 mm 3 mps 732 mmHg 81%

    Day after tomorrow, 21 February, Thursday

    Time Temperature Precipitation Wind Pressure Humidity
    00:00 +4°C° 0 mm 3 mps 733 mmHg 82%
    01:00 +4°C° 0 mm 3 mps 733 mmHg 83%
    02:00 +4°C° 0.1 mm 3 mps 733 mmHg 84%
    03:00 +4°C° 0.1 mm 3 mps 733 mmHg 85%
    04:00 +4°C° 0.1 mm 3 mps 733 mmHg 86%
    05:00 +4°C° 0.1 mm 3 mps 733 mmHg 87%
    06:00 +4°C° 0.1 mm 3 mps 733 mmHg 87%
    07:00 +3°C° 0.1 mm 3 mps 733 mmHg 88%
    08:00 +4°C° 0 mm 4 mps 733 mmHg 83%
    09:00 +5°C° 0 mm 4 mps 734 mmHg 79%
    10:00 +6°C° 0 mm 4 mps 734 mmHg 74%
    11:00 +7°C° 0 mm 5 mps 734 mmHg 71%
    12:00 +7°C° 0 mm 5 mps 734 mmHg 67%
    13:00 +8°C° 0 mm 5 mps 734 mmHg 64%
    14:00 +8°C° 0 mm 5 mps 734 mmHg 65%
    15:00 +8°C° 0 mm 5 mps 734 mmHg 66%
    16:00 +9°C° 0 mm 5 mps 734 mmHg 66%
    17:00 +8°C° 0 mm 4 mps 735 mmHg 71%
    18:00 +8°C° 0 mm 3 mps 735 mmHg 76%
    19:00 +7°C° 0 mm 3 mps 735 mmHg 81%
    20:00 +7°C° 0.1 mm 3 mps 736 mmHg 82%
    21:00 +7°C° 0.1 mm 3 mps 736 mmHg 84%
    22:00 +7°C° 0.1 mm 3 mps 737 mmHg 85%
    23:00 +7°C° 0.2 mm 3 mps 737 mmHg 87%

    22 February, Friday

    Time Temperature Precipitation Wind Pressure Humidity
    00:00 +7°C° 0.2 mm 3 mps 737 mmHg 89%
    01:00 +5°C° 0.2 mm 3 mps 738 mmHg 91%
    02:00 +5°C° 0.1 mm 3 mps 738 mmHg 92%
    03:00 +5°C° 0.1 mm 3 mps 738 mmHg 93%
    04:00 +5°C° 0.1 mm 3 mps 738 mmHg 95%
    05:00 +6°C° 0.2 mm 2 mps 738 mmHg 95%
    06:00 +6°C° 0.2 mm 2 mps 739 mmHg 95%
    07:00 +6°C° 0.2 mm 2 mps 739 mmHg 96%
    08:00 +6°C° 0.2 mm 2 mps 740 mmHg 96%
    09:00 +6°C° 0.2 mm 2 mps 740 mmHg 96%
    10:00 +6°C° 0.2 mm 2 mps 741 mmHg 96%
    11:00 +6°C° 0.1 mm 2 mps 741 mmHg 95%
    12:00 +7°C° 0.1 mm 2 mps 741 mmHg 94%
    13:00 +7°C° 0.1 mm 2 mps 741 mmHg 92%
    14:00 +7°C° 0.1 mm 2 mps 742 mmHg 93%
    15:00 +7°C° 0.1 mm 2 mps 742 mmHg 94%
    16:00 +7°C° 0.1 mm 2 mps 742 mmHg 95%
    17:00 +7°C° 0 mm 1 mps 742 mmHg 96%
    18:00 +7°C° 0 mm 1 mps 742 mmHg 97%
    19:00 +7°C° 0 mm 1 mps 743 mmHg 98%
    20:00 +7°C° 0 mm 1 mps 743 mmHg 97%
    21:00 +6°C° 0 mm 1 mps 743 mmHg 97%
    22:00 +6°C° 0 mm 1 mps 744 mmHg 97%
    23:00 +6°C° 0 mm 1 mps 744 mmHg 96%

    23 February, Saturday

    Time Temperature Precipitation Wind Pressure Humidity
    00:00 +4°C° 0 mm 0 mps 744 mmHg 95%
    01:00 +4°C° 0 mm 0 mps 744 mmHg 94%
    02:00 +3°C° 0 mm 0 mps 744 mmHg 94%
    03:00 +4°C° 0 mm 1 mps 743 mmHg 94%
    04:00 +4°C° 0 mm 1 mps 743 mmHg 94%
    05:00 +3°C° 0 mm 1 mps 743 mmHg 94%
    06:00 +3°C° 0 mm 1 mps 743 mmHg 94%
    07:00 +3°C° 0 mm 1 mps 743 mmHg 94%
    08:00 +4°C° 0 mm 1 mps 743 mmHg 89%
    09:00 +6°C° 0 mm 1 mps 744 mmHg 84%
    10:00 +7°C° 0 mm 0 mps 744 mmHg 79%
    11:00 +8°C° 0 mm 0 mps 744 mmHg 73%
    12:00 +10°C° 0 mm 1 mps 744 mmHg 67%
    13:00 +12°C° 0 mm 1 mps 743 mmHg 61%
    14:00 +12°C° 0 mm 1 mps 743 mmHg 61%
    15:00 +12°C° 0 mm 1 mps 743 mmHg 62%
    16:00 +12°C° 0 mm 1 mps 742 mmHg 62%
    17:00 +9°C° 0 mm 0 mps 742 mmHg 69%
    18:00 +8°C° 0 mm 0 mps 742 mmHg 75%
    19:00 +6°C° 0 mm 0 mps 742 mmHg 81%
    20:00 +6°C° 0 mm 0 mps 742 mmHg 82%
    21:00 +5°C° 0 mm 0 mps 742 mmHg 83%
    22:00 +5°C° 0 mm 0 mps 742 mmHg 83%
    23:00 +5°C° 0 mm 0 mps 742 mmHg 83%

    24 February, Sunday

    Time Temperature Precipitation Wind Pressure Humidity
    00:00 +5°C° 0 mm 0 mps 742 mmHg 83%
    01:00 +5°C° 0 mm 0 mps 741 mmHg 84%
    02:00 +4°C° 0 mm 0 mps 741 mmHg 84%
    03:00 +4°C° 0 mm 0 mps 741 mmHg 84%
    04:00 +5°C° 0 mm 1 mps 741 mmHg 84%
    05:00 +5°C° 0 mm 1 mps 741 mmHg 83%
    06:00 +5°C° 0 mm 1 mps 741 mmHg 82%
    07:00 +5°C° 0 mm 1 mps 741 mmHg 81%
    08:00 +7°C° 0 mm 1 mps 741 mmHg 75%
    09:00 +9°C° 0 mm 1 mps 741 mmHg 68%
    10:00 +11°C° 0 mm 1 mps 741 mmHg 62%
    11:00 +12°C° 0 mm 1 mps 741 mmHg 56%
    12:00 +14°C° 0 mm 1 mps 741 mmHg 50%
    13:00 +16°C° 0 mm 1 mps 741 mmHg 44%
    14:00 +16°C° 0 mm 1 mps 740 mmHg 47%
    15:00 +15°C° 0 mm 1 mps 740 mmHg 50%
    16:00 +15°C° 0 mm 1 mps 739 mmHg 53%
    17:00 +13°C° 0 mm 1 mps 739 mmHg 59%
    18:00 +10°C° 0 mm 2 mps 738 mmHg 65%
    19:00 +9°C° 0 mm 2 mps 738 mmHg 71%
    20:00 +8°C° 0 mm 2 mps 738 mmHg 73%
    21:00 +7°C° 0 mm 2 mps 738 mmHg 74%
    22:00 +7°C° 0 mm 2 mps 737 mmHg 76%
    23:00 +5°C° 0 mm 3 mps 737 mmHg 77%
    Show more